レモン彗星

C/2024 B1 ( Lemmon )

English version
Home page
Updated on September 27, 2024

---------------------------------------------------------------------

・ プロフィール

発見日 2024年1月16日
発見光度 20.6等
発見者 Mt. Lemmon Survey

・ 写真集

・ 軌道要素

Epoch 2024 Oct. 17.0 TT = JDT 2460600.5
T 2024 Oct. 7.70287 TT                                  Rudenko
q   1.6336462            (2000.0)            P               Q
z  -0.0004905      Peri.   66.21034     -0.21835545     -0.30127160
 +/-0.0000055      Node    79.18765     +0.07109250     -0.95353614
e   1.0008012      Incl.   70.90490     +0.97327630     +0.00206002
>From 58 observations 2023 Oct. 13-2024 Aug. 30, mean residual 0".5.

・ 星図

・ 光度変化

        m1 = 8.5 + 5 logΔ + 16.0 log r

---------------------------------------------------------------------

軌道要素はM.P.E.C. 2024-R10に掲載されたものです。
星図はステラナビゲータ Ver.11 (アストロアーツ) で作成したものです。
光度グラフはComet for Windowsで作成したものです。

---------------------------------------------------------------------

Copyright(C) Seiichi Yoshida (comet@aerith.net). All rights reserved.